sat.trackr.live / text

‹ back to catalog

KUIPER-00105

NORAD 65143 · 2025-171M

PAYLOAD ACTIVE UNKNOWN

§ Identity

Operator
Country
US
Launch date
2025-08-11
Launch site
AFETR
Launch vehicle
Mass (kg)
RCS (m²)

External: N2YO · Heavens-Above · Gunter

§ Orbital elements

Epoch: 2026-09-21T13:45:40.305888Z

Period
97.30 min
Inclination
51.9020°
Eccentricity
0.0000489
Mean motion
14.79936246 rev/d
Perigee alt
629.2 km
Apogee alt
629.9 km
Semi-major
7,007.7 km
B*
3.0034e-4
RAAN
19.4594°
Arg perigee
108.0026°
Mean anomaly
252.0990°
Rev number
6,179

§ Raw data

KUIPER-001051 65143U 25171M   26264.57338317  .00002069  00000+0  30034-3 0  99912 65143  51.9020  19.4594 0000489 108.0026 252.0990 14.79936246 61799

JSON: /api/v1/satellites/65143 · /tle

For live sub-satellite position, see the globe view (requires WebGL).

§ Visibility from observer

Set your observer location to see the next 7 days of passes ≥ 10°. The values pass through the URL so the page stays shareable.

No JS? Fill the form by hand. The geolocation button needs JavaScript.